Weather History for Challis, ID

Change the Weather History Date:

Sunday, November 6, 2011

  Actual Average Record
Temperature  
Mean Temperature 24 °F 35 °F  
Max Temperature 32 °F 47 °F 67 °F (1965)
Min Temperature 15 °F 24 °F 2 °F (1971)
Degree Days  
Heating Degree Days 41 30  
Month to date heating degree days 217 171  
Since 1 July heating degree days 939 1165  
Cooling Degree Days 0 0  
Month to date cooling degree days 0 0  
Year to date cooling degree days 196 248  
Moisture  
Dew Point 19 °F    
Average Humidity 70    
Maximum Humidity 92    
Minimum Humidity 47    
Precipitation  
Precipitation 0.01 in 0.02 in 0.20 in (1998)
Month to date precipitation 0.07 0.12  
Year to date precipitation 6.09 8.92  
Sea Level Pressure  
Sea Level Pressure 29.97 in    
Wind  
Wind Speed 1 mph (NW)    
Max Wind Speed 9 mph    
Max Gust Speed 12 mph    
Visibility 8 miles    
Events Snow    
T = Trace of Precipitation, MM = Missing Value Source: NWS Daily Summary

Daily Weather History Graph

Daily Weather History Graph

Search for Another Location

Airport:

Trip Planner

Search our weather history database for the weather conditions in past years. The results will help you decide how hot, cold, wet, or windy it might be!

Date:

Astronomy

Nov. 06, 2011 Rise Set
Actual Time 7:20 AM MST 5:19 PM MST
Civil Twilight 6:50 AM MST 5:50 PM MST
Nautical Twilight 6:15 AM MST 6:24 PM MST
Astronomical Twilight 5:41 AM MST 6:58 PM MST
Moon 3:11 PM MST (11/6) 3:23 AM MST (11/6)
Length of Visible Light 11h 00m
Length of Day
9h 58m
Waxing Gibbous, 86% of the Moon is Illuminated
Nov 6
Waxing Gibbous
Nov 10
Full
Nov 18
Last Quarter
Nov 24
New
Dec 2
First Quarter

Hourly Weather History & Observations

Time (MST) Temp. Windchill Dew Point Humidity Pressure Visibility Wind Dir Wind Speed Gust Speed Precip Events Conditions
12:55 AM 18.0 °F - 12.9 °F 81% 29.88 in 10.0 mi Calm Calm - N/A   Mostly Cloudy
1:55 AM 17.1 °F - 10.0 °F 74% 29.89 in 10.0 mi Calm Calm - N/A   Scattered Clouds
1:55 AM 17.1 °F - 10.0 °F 74% 29.89 in 10.0 mi Calm Calm - N/A   Partly Cloudy
2:55 AM 16.0 °F - 10.0 °F 77% 29.89 in 10.0 mi Calm Calm - N/A   Scattered Clouds
3:55 AM 17.1 °F - 10.9 °F 77% 29.89 in 10.0 mi Calm Calm - N/A   Overcast
4:55 AM 18.0 °F - 12.0 °F 78% 29.90 in 10.0 mi Calm Calm - N/A   Overcast
5:55 AM 19.0 °F - 12.0 °F 74% 29.91 in 10.0 mi Calm Calm - N/A   Overcast
6:55 AM 19.9 °F 14.9 °F 12.9 °F 74% 29.92 in 10.0 mi NW 3.5 mph - N/A   Overcast
7:55 AM 19.9 °F - 14.0 °F 78% 29.95 in 10.0 mi Calm Calm - N/A   Overcast
9:55 AM 24.1 °F - 14.0 °F 65% 29.99 in 10.0 mi Calm Calm - N/A   Overcast
10:55 AM 25.0 °F - 12.9 °F 60% 30.01 in 10.0 mi Calm Calm - N/A   Overcast
11:55 AM 30.0 °F 25.2 °F 12.9 °F 49% 29.98 in 10.0 mi ENE 4.6 mph - N/A   Overcast
1:55 PM 30.9 °F 27.5 °F 14.0 °F 50% 29.97 in 10.0 mi WSW 3.5 mph - N/A   Overcast
2:55 PM 30.9 °F - 16.0 °F 54% 29.97 in 10.0 mi Calm Calm - N/A   Overcast
3:55 PM 30.9 °F 23.5 °F 21.0 °F 67% 29.98 in 10.0 mi NNW 8.1 mph - N/A   Overcast
4:55 PM 30.0 °F 24.1 °F 23.0 °F 75% 30.00 in 10.0 mi NNW 5.8 mph - N/A   Overcast
5:44 PM 28.4 °F - 23.0 °F 80% 29.91 in 4.0 mi Calm Calm - 0.00 in Snow Light Snow
5:55 PM 28.9 °F - 24.1 °F 82% 30.02 in 5.0 mi Calm Calm - 0.00 in Snow Light Snow
6:55 PM 28.9 °F - 25.0 °F 85% 30.03 in 10.0 mi Calm Calm - 0.00 in   Overcast
7:23 PM 28.4 °F 23.3 °F 24.8 °F 86% 29.95 in 2.5 mi NNW 4.6 mph - 0.00 in Snow Light Snow
7:55 PM 28.0 °F - 26.1 °F 92% 30.07 in 3.0 mi Calm Calm - 0.01 in Snow Light Snow
8:09 PM 28.4 °F - 26.6 °F 93% 29.96 in 2.5 mi Calm Calm - 0.00 in Snow Light Snow
8:34 PM 26.6 °F - 26.6 °F 100% 29.97 in 3.0 mi Calm Calm - 0.00 in Snow Light Snow
8:55 PM 27.0 °F - 25.0 °F 92% 30.08 in 6.0 mi Calm Calm - 0.00 in Snow Light Snow
9:47 PM 26.6 °F - 26.6 °F 100% 29.99 in 10.0 mi Calm Calm - 0.00 in   Overcast
9:55 PM 27.0 °F - 26.1 °F 96% 30.09 in 10.0 mi Calm Calm - 0.00 in   Overcast
10:51 PM 26.6 °F - 24.8 °F 93% 30.01 in 5.0 mi Calm Calm - 0.00 in Snow Light Snow
10:55 PM 26.1 °F - 25.0 °F 96% 30.10 in 4.0 mi Calm Calm - 0.00 in Snow Light Snow